Find Kosmos-827

NORAD ID: 8891 Int'l Des: 1976-054 Owner: GUKOSR Country: SU operational
LEOCIRCULAR

实时位置

正在加载3D地球...

关于 Kosmos-827

正在加载描述...

即将过境

Passes for default location (London). Set your location on the main map for personalized predictions.

高度历史

Loading altitude history...

两行轨道根数

1 8891U 76054C 26137.84389443 .00000001 00000-0 10998-3 0 9991
2 8891 73.9989 174.3748 0049222 324.6930 209.3374 12.53309191701744
Epoch: May 17, 2026 • Age: 8 hours

当前状态

高度 1484.2 km
速度 7.11 km/s
星下点 -0.41°S, 58.94°E
类型 other

Most Searched